Theta_e
311 313 314 314 315 315 316 316 316 316 316 317 318 318 319 321 320 314 306 312 317 323 321 315 312 311 310 308 310 307 295 292 294 294 295 300 298 302 303 299 301 303 301 304 306
311 312 313 314 314 315 315 316 316 316 316 316 317 318 319 320 314 307 314 319 320 322 312 310 307 308 304 305 304 300 295 296 299 298 297 299 298 299 299 299 298 301 304 305 304
311 311 312 313 314 314 315 315 316 316 315 316 317 318 319 318 309 305 317 318 320 318 312 312 310 308 304 304 302 300 295 298 299 302 301 299 298 301 298 296 298 296 299 302 302
312 312 311 312 313 314 315 315 315 316 316 315 317 318 320 314 299 309 318 320 322 316 311 310 308 304 302 299 301 297 300 300 301 302 301 299 300 297 297 297 300 300 301 301 300
314 313 312 312 313 314 314 315 315 315 315 315 316 319 316 305 304 312 318 318 314 313 309 307 304 303 299 299 300 297 298 301 302 301 300 301 298 297 297 298 300 302 301 299 299
315 315 313 312 312 313 314 314 314 315 315 314 316 318 312 299 311 312 312 314 312 311 309 309 305 306 301 300 299 300 300 300 301 300 300 298 297 297 299 299 299 300 298 298 299
316 316 314 313 313 313 314 314 314 314 315 314 316 314 307 303 311 312 312 312 313 312 308 310 309 306 304 299 303 301 296 297 298 299 298 299 293 294 298 299 299 296 297 297 298
316 315 315 314 313 313 313 313 313 314 314 314 315 312 303 311 312 310 312 311 314 314 312 312 311 307 304 303 300 296 295 290 297 298 298 295 288 297 298 296 296 295 295 296 297
316 315 315 315 314 314 313 313 314 313 313 314 311 308 300 310 306 310 311 307 311 313 312 309 308 303 302 296 291 293 287 290 292 298 296 294 290 297 299 297 295 294 293 295 296
316 315 315 315 314 314 314 313 314 311 312 311 308 301 302 301 306 308 311 310 308 309 307 306 301 296 295 292 287 287 286 289 287 294 294 291 292 296 298 297 294 294 292 294 294
316 316 315 315 314 313 310 307 303 301 304 301 301 300 301 305 309 306 309 307 307 303 296 301 293 290 294 294 294 292 289 287 291 295 290 290 291 294 298 297 293 294 292 292 293
317 316 315 315 313 312 308 301 300 301 293 298 300 301 304 306 299 303 308 301 299 294 297 294 289 296 297 296 293 291 287 287 290 293 290 289 289 293 296 296 295 294 292 293 294
317 315 315 313 311 307 303 301 307 305 293 295 298 297 300 303 298 299 303 300 296 294 294 290 293 297 295 292 291 289 287 284 286 291 292 289 287 290 294 296 296 295 296 295 293
316 315 314 311 304 304 298 306 307 306 293 292 293 297 300 302 295 304 304 300 296 292 293 292 295 293 291 291 291 286 291 290 289 286 280 289 276 287 290 292 294 295 294 293 291
316 315 313 311 300 296 300 303 304 303 284 295 293 302 301 295 297 297 304 300 294 293 292 289 290 289 290 291 292 289 291 289 288 285 285 281 278 285 287 287 291 293 295 292 290
316 314 313 304 301 300 301 301 300 289 284 289 293 293 292 295 296 297 298 300 299 294 293 292 294 293 291 292 292 293 290 289 287 286 276 281 280 281 283 286 289 294 294 292 290
311 314 309 306 300 301 301 298 286 284 292 287 288 292 292 290 293 293 292 291 288 284 285 289 290 292 293 289 291 290 285 278 277 274 277 284 279 282 291 292 293 293 292 290 290
309 312 309 306 302 301 300 291 284 288 287 293 291 291 288 291 291 292 291 287 292 291 287 284 281 289 292 289 287 287 285 279 274 276 277 281 277 283 292 293 293 294 292 291 289
310 309 303 302 302 303 296 284 287 289 294 290 290 287 286 290 290 290 289 289 292 292 286 286 284 290 291 292 289 286 280 286 280 276 276 280 284 288 289 289 291 291 291 288 289
302 301 299 302 302 299 288 288 289 294 294 292 288 291 284 286 286 288 288 293 292 294 293 290 282 288 289 290 290 287 289 279 279 271 274 280 279 280 285 287 290 290 290 289 288
300 295 298 302 301 290 284 286 289 293 295 291 289 289 291 287 286 287 289 291 294 292 293 290 286 283 287 285 285 283 282 284 283 281 277 276 279 285 288 290 290 290 292 289 287
296 287 298 301 286 285 284 287 292 291 293 292 292 292 290 290 287 287 288 290 295 293 288 291 287 280 283 287 288 287 285 285 279 278 279 279 279 288 290 291 292 291 293 290 288
285 286 298 297 284 282 285 286 286 288 290 290 289 292 290 289 287 289 290 291 294 293 290 290 282 276 280 281 285 284 286 287 285 281 279 277 280 289 289 288 290 291 291 289 288
285 283 286 287 286 287 286 285 285 289 289 291 291 291 289 286 292 286 286 289 292 293 294 293 284 282 280 279 283 280 283 285 284 278 280 281 281 283 287 288 289 290 291 288 287
285 284 286 282 283 285 289 287 286 283 287 291 287 289 289 286 286 287 287 287 290 292 291 290 278 281 282 283 282 282 283 283 283 284 279 283 283 287 289 288 290 291 292 289 288
285 284 285 285 288 285 285 286 287 288 284 284 286 288 290 287 289 286 288 288 287 289 289 289 277 279 275 282 282 280 282 284 285 285 285 286 284 291 291 289 290 291 292 290 288
290 291 286 285 286 284 284 286 288 292 289 291 289 288 287 291 292 292 293 292 291 287 286 284 282 280 276 278 275 272 279 282 284 286 286 282 288 289 288 290 292 291 293 292 289
Wind_Speed
7 9 10 11 12 13 14 15 16 16 15 15 15 14 14 16 17 5 5 6 9 16 14 11 7 3 6 3 2 2 3 5 3 1 5 5 4 5 4 5 3 3 2 7 10
7 8 9 10 11 12 14 15 15 16 16 15 14 14 14 15 7 5 3 8 11 11 9 7 1 3 2 2 1 2 3 7 7 7 5 4 2 5 5 3 1 5 11 10 10
7 8 9 10 11 12 13 14 16 16 16 16 14 13 14 11 6 4 7 9 11 11 5 6 5 5 2 2 1 2 3 5 6 8 6 4 3 3 5 4 8 6 9 9 9
7 8 8 10 11 12 13 14 15 16 16 16 14 13 14 5 2 4 7 9 10 8 6 3 4 3 2 3 1 2 4 5 4 3 2 3 5 4 2 4 4 6 6 7 8
7 8 8 9 10 12 13 15 15 15 15 16 15 12 7 5 4 5 7 7 4 4 5 5 5 3 2 3 2 0 4 2 5 2 1 3 5 4 4 3 4 5 5 7 8
8 9 8 9 10 12 14 15 15 16 16 16 14 15 5 4 2 5 6 6 9 6 5 4 4 2 5 3 4 3 5 4 3 2 3 4 4 2 6 4 6 3 5 7 8
10 9 9 9 10 11 13 14 16 16 16 15 11 7 5 2 0 4 4 3 4 6 4 4 5 3 2 4 0 3 4 4 6 4 2 3 6 9 5 3 7 2 6 5 6
11 10 9 9 10 11 13 16 17 17 16 10 8 6 2 2 5 1 2 1 3 4 5 5 7 5 4 3 3 4 3 3 7 4 4 1 6 9 6 5 6 1 3 3 5
11 10 9 9 9 11 14 17 18 14 7 7 5 4 2 2 3 1 3 2 1 1 2 1 3 3 2 3 3 4 3 5 6 5 1 6 6 7 6 5 6 4 2 2 4
11 11 9 9 8 10 14 19 10 9 6 5 4 3 3 3 4 0 2 1 2 1 2 3 2 3 3 3 2 2 3 2 3 4 5 7 14 13 10 7 7 6 3 4 3
12 11 9 8 8 9 9 5 2 3 4 3 3 2 3 4 3 2 1 2 2 3 3 1 3 5 6 1 4 5 4 5 4 6 3 8 12 9 7 9 7 8 4 3 4
13 11 8 6 6 7 5 4 3 2 4 2 1 1 2 3 3 4 2 3 3 5 4 2 5 5 8 4 2 3 3 4 5 4 2 8 16 14 8 7 8 7 2 3 5
15 11 8 3 2 3 4 3 1 3 5 3 2 3 2 3 1 6 2 1 4 5 5 6 4 4 3 3 3 4 1 3 4 6 7 8 9 2 2 1 6 5 4 3 2
17 14 12 9 1 1 2 5 1 2 3 4 4 3 3 3 3 3 3 3 2 3 3 5 6 5 3 3 2 3 4 4 4 6 3 3 8 5 3 6 7 6 6 5 2
19 19 18 12 3 3 2 3 2 1 3 5 4 1 1 4 5 3 1 2 3 5 1 1 5 4 4 0 3 2 1 2 3 4 6 1 1 8 1 5 8 8 8 6 3
18 21 20 4 1 0 4 2 0 5 9 4 5 6 5 3 3 5 3 3 2 1 4 3 3 3 2 6 5 4 2 5 3 3 1 4 4 7 5 6 4 6 7 6 4
16 23 18 9 5 9 3 1 4 5 4 4 4 6 8 5 6 5 6 5 4 5 6 4 5 3 2 4 2 3 3 3 4 2 5 4 2 11 4 7 6 8 8 7 5
21 13 11 4 8 10 1 4 7 4 4 5 4 6 4 6 3 6 7 4 9 6 2 6 3 9 7 2 2 6 2 3 4 2 3 2 7 8 4 8 5 7 8 8 5
23 6 5 5 10 4 5 6 6 7 8 11 7 4 4 4 3 5 6 4 7 12 5 4 4 4 2 3 3 5 5 1 1 2 2 6 8 2 5 4 6 7 7 7 6
8 4 3 14 9 6 3 8 5 2 6 5 9 8 6 5 6 8 8 3 2 8 7 5 2 2 3 1 1 2 1 3 3 1 5 5 5 7 7 9 8 9 9 8 8
3 3 4 14 8 3 5 7 5 5 4 7 8 5 5 7 5 5 5 2 2 3 4 5 1 2 3 8 8 4 3 3 0 3 3 4 7 2 4 12 13 10 9 9 9
6 3 7 11 4 3 5 7 3 5 4 2 1 2 6 8 6 4 3 4 5 5 5 2 1 5 7 4 4 3 6 7 5 5 3 1 10 2 5 7 9 9 8 9 10
3 2 4 3 7 4 1 4 4 6 5 6 6 3 1 7 6 6 4 3 0 4 0 2 1 1 5 2 2 5 5 3 3 2 7 6 8 2 3 1 0 9 9 8 9
2 2 1 1 1 10 10 6 7 4 3 4 4 5 4 2 1 7 4 1 2 4 2 1 1 5 4 2 4 4 6 8 6 4 4 11 8 4 7 8 7 6 9 10 9
3 3 1 5 9 3 11 13 15 8 6 7 1 6 8 6 5 6 5 5 2 4 2 1 5 3 5 5 5 5 6 10 16 18 9 2 15 11 10 11 13 11 9 11 12
3 3 2 3 6 13 6 11 19 15 13 7 8 19 16 10 9 10 9 6 6 5 6 2 3 1 5 4 7 7 9 14 19 21 20 22 30 12 11 4 9 12 12 13 14
2 2 1 3 3 9 13 12 16 16 8 7 16 6 11 13 9 7 4 5 8 12 11 8 5 2 5 3 5 8 21 24 16 13 23 19 32 3 6 8 14 12 16 17 15
Wind_Direction
335 345 349 353 356 357 356 354 350 347 346 345 343 340 336 332 310 234 35 337 319 321 315 266 252 226 239 133 279 287 283 255 95 88 91 107 344 129 145 272 84 76 334 4 354
320 330 338 344 350 353 353 352 349 345 342 341 341 338 334 332 294 67 14 330 324 324 325 331 114 280 150 131 170 262 281 27 12 40 46 79 336 9 325 261 191 22 360 351 345
304 314 324 331 339 343 346 348 346 344 341 339 336 334 329 319 268 72 1 334 326 315 289 299 294 277 166 273 54 65 357 98 59 34 354 28 258 66 326 272 48 335 321 335 319
274 298 308 318 325 332 336 339 340 340 338 334 330 326 320 273 301 26 340 320 314 288 289 280 248 236 224 187 79 173 24 2 93 43 326 344 340 274 114 27 1 295 326 317 345
255 270 290 303 313 318 326 330 331 333 334 331 325 321 307 235 70 1 338 339 305 326 4 326 271 321 199 91 223 231 117 80 75 151 308 319 256 301 224 127 290 290 323 352 346
251 249 271 287 299 307 317 320 324 326 326 326 321 315 251 263 312 9 354 1 4 4 24 343 7 350 71 55 328 50 140 131 176 170 226 285 309 88 194 121 280 304 359 22 3
241 247 259 279 293 303 313 314 316 315 314 312 310 302 267 38 97 352 19 22 1 359 88 26 344 302 160 121 317 130 165 201 199 184 285 344 251 216 125 201 273 20 45 13 27
234 240 251 269 289 301 311 310 309 308 302 292 295 286 318 102 342 314 336 110 43 50 69 9 344 86 3 113 164 220 269 231 118 166 139 312 295 184 142 239 279 298 82 350 348
229 233 242 261 280 298 305 305 302 300 274 275 266 230 148 155 212 63 3 21 333 74 60 288 294 89 159 221 198 204 291 201 161 186 31 201 292 131 172 242 267 274 125 292 297
224 231 238 254 276 297 307 296 290 296 230 228 257 274 174 129 105 89 113 314 326 203 204 237 215 215 218 199 215 282 227 182 277 150 214 258 259 272 187 208 252 261 215 248 311
217 223 230 246 274 304 323 319 228 204 232 300 54 28 130 97 206 169 358 216 217 250 240 141 251 210 229 117 30 314 327 298 327 106 292 246 261 257 212 187 222 248 211 283 338
210 217 212 238 283 312 296 287 70 318 289 142 260 233 24 326 193 151 241 244 194 245 137 168 234 81 80 63 321 349 21 310 284 81 237 284 282 267 235 209 200 237 262 296 330
202 192 182 168 352 305 275 351 3 320 255 161 174 216 123 220 291 126 230 110 242 241 197 262 83 103 127 157 237 167 167 260 275 318 244 311 282 349 56 159 188 226 238 247 310
190 172 149 117 304 179 223 109 116 339 312 179 189 140 162 242 172 57 14 331 201 266 199 252 104 164 183 236 193 283 51 186 300 357 297 54 285 292 244 199 223 232 223 210 47
187 170 162 161 135 190 124 86 2 231 295 111 131 70 77 228 130 109 25 187 236 181 173 174 158 190 217 288 158 101 67 279 328 288 323 80 66 271 167 251 225 215 205 149 99
200 167 154 102 15 122 126 107 154 55 243 128 122 162 162 200 150 130 162 228 318 27 233 72 348 243 37 74 36 96 233 206 263 239 309 205 145 279 200 212 205 202 158 144 143
329 168 160 143 201 140 155 102 77 209 342 193 173 172 212 163 159 191 163 171 177 146 203 148 191 105 168 135 163 239 266 325 342 4 234 190 203 248 222 170 178 168 159 151 140
324 218 167 143 126 125 189 60 199 191 208 106 122 163 188 151 202 195 169 209 229 275 213 174 247 170 172 265 189 197 323 180 235 283 301 62 240 258 58 144 118 119 139 135 171
319 153 144 131 140 124 140 217 206 196 163 149 144 174 223 179 155 181 229 207 204 193 219 201 123 52 3 39 8 152 215 8 64 52 14 221 256 148 108 149 156 172 157 177 176
322 157 170 133 137 133 105 238 234 263 117 162 179 175 161 195 176 185 192 224 234 183 238 350 102 186 107 268 243 335 23 96 332 196 264 282 270 240 209 208 192 201 192 181 153
264 208 119 134 114 98 190 228 221 248 209 172 192 157 154 170 200 205 171 47 24 42 197 345 112 125 122 205 180 163 227 206 27 199 209 301 263 286 248 183 189 193 188 169 154
304 227 158 158 120 169 178 193 270 208 225 195 41 143 155 146 159 219 210 76 87 137 152 199 353 180 206 80 18 285 214 176 152 224 236 95 272 335 53 142 161 177 176 156 148
304 317 187 297 186 189 167 215 205 179 187 192 184 198 106 163 142 184 139 333 196 158 139 113 295 46 321 18 25 243 204 255 110 76 209 154 259 356 72 53 14 163 161 147 148
268 220 277 317 299 198 174 193 203 212 223 208 155 107 118 141 67 160 149 115 35 68 43 140 208 207 198 126 114 218 217 202 186 193 194 228 283 196 221 210 203 215 166 156 162
206 238 201 203 230 249 201 169 191 184 218 170 336 232 177 162 144 181 142 133 48 128 85 306 222 222 248 246 192 220 201 200 214 224 205 222 234 245 228 208 202 185 170 161 173
270 249 180 283 243 200 242 196 195 196 157 212 190 198 207 185 182 187 145 174 178 173 161 226 257 26 286 230 223 238 220 231 220 234 250 258 271 253 249 255 181 184 179 182 183
215 276 270 268 208 209 213 224 215 200 202 197 206 170 207 221 95 47 79 169 161 156 171 162 165 158 259 10 335 283 212 219 218 211 218 228 242 168 231 223 217 188 184 189 187